User: anonymous   Login
Location: Albany
(35.0000°S, 118.0000°E)
Time: 13:12:04
(UTC-04:00)
Language:

Cosmos 1933 - Orbit

View from above orbital plane
View from above orbital plane
View from above satellite
View from above satellite

Ground track
Ground track

The orbit data is extracted from the following two-line orbital elements,

1 18958U 88020A   16183.17654184  .00000079  00000-0  37521-5 0  9993
2 18958  82.5304  82.4748 0012917  42.4053 317.8168 15.02939632538804
Epoch (UTC): 01 July 2016 04:14:13
Eccentricity: 0.0012917
inclination: 82.5304°
perigee height: 549 km
apogee height: 567 km
right ascension of ascending node: 82.4748°
argument of perigee: 42.4053°
revolutions per day: 15.02939632
mean anomaly at epoch: 317.8168°
orbit number at epoch: 53880

The dashed part of the orbit path shows where the satellite is in the earth's shadow,  

DLR